LTAT

Details ICAO LTAT (MLX)
Name ERHAC
Region Turkey
Timezone Europe/Istanbul (UTC+3.0)
Plans Departing 33
Arriving 27
Stats Elevation 2,828 ft / 862 m (AMSL)
Location 38.435346° 38.091007°
Runways 1
Magnetic Variation 5.740° E
Sunrise 2018-05-21 02:13:11 UTC / 2018-05-21 05:13:11 Local
Sunset 2018-05-21 16:38:06 UTC / 2018-05-21 19:38:06 Local
Advertisement - Login to hide

Runways

ID Width Length Bearing (true) Bearing (mag) Surface Threshold Offset Overrun Length
03 148 ft / 45 m 11,000 ft / 3,353 m 31.39° 25.65° Asphalt 0 ft / 0 m 868 ft / 265 m
21 148 ft / 45 m 11,000 ft / 3,353 m 211.40° 205.66° Asphalt 0 ft / 0 m 895 ft / 273 m

Map

Weather


0- 5 10 15 20 25 30 35+ Temperature / ° C

Clouds and Precipitation
Forecast for 2018-05-21 18:00 UTC. Updated 2 hours ago

Ground ~20,000 ft ~40,000 ft Winds

METAR

LTAT 211650Z 26004KT 9999 SCT035 BKN180 21/13 Q1016 NOSIG

TAF

Not found

Frequencies

Recorded 128.35 MHz ATIS
Tower 122.10 MHz TWR
Ground 121.95 MHz GND
Approach 122.10 MHz APP
Warning: Do not use this data for real-world aviation or navigation. No guarantee of current accuracy is given.